TimeAKST,TemperatureF,Dew PointF,Humidity,Sea Level PressureIn,VisibilityMPH,Wind Direction,Wind SpeedMPH,Gust SpeedMPH,PrecipitationIn,Events,Conditions,WindDirDegrees,DateUTC
12:53 AM,37.0,32.0,82,30.23,10.0,NE,6.9,-,N/A,,Mostly Cloudy,40,2013-01-01 09:53:00
1:53 AM,41.0,32.0,70,30.22,10.0,South,9.2,-,N/A,,Overcast,190,2013-01-01 10:53:00
3:53 AM,41.0,32.0,70,30.21,10.0,South,9.2,-,N/A,,Overcast,190,2013-01-01 12:53:00
4:53 AM,41.0,30.9,67,30.17,10.0,South,9.2,17.3,N/A,,Clear,190,2013-01-01 13:53:00
5:53 AM,41.0,30.9,67,30.16,10.0,South,10.4,20.7,N/A,,Mostly Cloudy,190,2013-01-01 14:53:00
6:53 AM,41.0,30.0,65,30.11,10.0,South,8.1,16.1,N/A,,Overcast,190,2013-01-01 15:53:00
7:53 AM,37.9,30.9,76,30.09,10.0,NE,5.8,-,N/A,,Overcast,40,2013-01-01 16:53:00
8:53 AM,36.0,30.9,82,30.08,10.0,ENE,6.9,-,N/A,,Overcast,60,2013-01-01 17:53:00
9:53 AM,37.0,30.9,79,30.02,10.0,Variable,3.5,-,N/A,,Mostly Cloudy,0,2013-01-01 18:53:00
10:53 AM,36.0,30.9,82,30.02,10.0,Calm,Calm,-,N/A,,Overcast,0,2013-01-01 19:53:00
11:17 AM,39.2,32.0,75,30.01,6.0,SSW,11.5,17.3,0.01,Rain,Light Rain,210,2013-01-01 20:17:00
11:53 AM,37.0,33.1,86,29.99,10.0,NNE,4.6,-,0.02,,Overcast,20,2013-01-01 20:53:00
12:08 PM,37.4,33.8,87,29.98,10.0,Calm,Calm,-,N/A,,Overcast,0,2013-01-01 21:08:00
12:53 PM,35.1,33.1,92,29.95,4.0,NNE,3.5,-,0.03,Rain,Light Rain,20,2013-01-01 21:53:00
1:53 PM,35.1,32.0,89,29.92,6.0,ENE,8.1,-,0.06,Rain,Light Rain,60,2013-01-01 22:53:00
2:36 PM,35.6,33.8,93,29.88,10.0,NNE,3.5,-,0.01,Rain,Light Rain,20,2013-01-01 23:36:00
2:53 PM,36.0,33.1,89,29.86,10.0,North,5.8,-,0.01,,Overcast,10,2013-01-01 23:53:00
3:14 PM,35.6,33.8,93,29.85,10.0,North,4.6,-,0.01,Rain,Light Rain,10,2013-01-02 00:14:00
3:53 PM,37.0,33.1,86,29.83,10.0,Calm,Calm,-,0.02,Rain,Light Rain,0,2013-01-02 00:53:00
4:53 PM,37.9,33.1,83,29.79,6.0,SSW,25.3,35.7,0.06,Snow,Light Snow,210,2013-01-02 01:53:00
5:53 PM,37.0,33.1,86,29.78,10.0,SSW,16.1,24.2,0.04,Rain,Light Rain,200,2013-01-02 02:53:00
6:53 PM,37.9,33.1,83,29.76,9.0,Variable,5.8,-,0.04,Rain,Light Rain,0,2013-01-02 03:53:00
7:53 PM,37.9,33.1,83,29.72,7.0,SSW,20.7,38.0,0.07,Rain,Light Rain,210,2013-01-02 04:53:00
8:53 PM,39.0,34.0,82,29.70,8.0,SSW,27.6,43.7,0.03,Rain,Light Rain,200,2013-01-02 05:53:00
9:43 PM,39.2,33.8,81,29.72,9.0,SSW,29.9,39.1,0.00,Rain,Light Rain,200,2013-01-02 06:43:00
9:53 PM,39.9,34.0,79,29.72,9.0,SSW,31.1,43.7,0.01,Rain,Light Rain,200,2013-01-02 06:53:00
10:53 PM,39.9,33.1,77,29.73,10.0,SSW,24.2,36.8,0.00,,Overcast,200,2013-01-02 07:53:00
11:53 PM,39.9,33.1,77,29.76,10.0,SSW,20.7,35.7,N/A,,Mostly Cloudy,210,2013-01-02 08:53:00